Vertical_Velocity
-3 -7 -17 -6 -6 1 9 4 1 1 4 -0 -7 -5 -7 11 -6 -5 -4 -0 -8 -9 6 3 2 -4 1 2 -0 1 -1 -0 -4 0 1 -0 5 -1 -2 0 -0 0 0 1
7 -47 26 3 -4 -3 6 2 -6 -2 7 12 -2 -3 -2 -6 1 -4 -3 -1 -5 -1 1 -6 0 1 2 5 0 1 0 1 1 -0 -1 -2 1 2 2 2 -1 -0 1 0
-0 -21 -1 5 2 0 -2 -4 0 1 -1 5 -1 -12 -9 -26 -2 2 2 0 -2 -0 -5 -2 -0 -0 1 2 2 4 3 3 1 -3 -3 -0 2 1 0 0 1 -0 1 2
-8 22 8 4 -3 10 -3 17 4 3 3 -5 22 -24 -5 -12 4 -5 -1 -0 -3 4 -1 1 -2 -5 -2 3 3 3 4 0 2 -1 -4 -3 -1 -1 -0 -3 -4 -2 -2 -2
-73 -0 -7 -10 -26 4 -25 3 6 2 -1 12 -7 25 -35 -3 -9 -4 0 -1 -2 -7 -4 -3 -1 1 -2 -1 2 5 3 1 0 1 2 -3 -0 -1 2 -0 -2 -3 -2 -1
-16 20 0 -12 9 3 15 2 0 2 2 11 2 11 -27 -7 -17 -6 -0 -3 -3 -5 -9 1 7 3 -3 -1 -3 2 1 -0 -0 2 4 1 -1 2 1 1 2 2 1 -0
4 -20 -0 -3 -1 6 12 11 4 11 15 -19 1 16 -25 5 13 -2 -2 1 2 1 -2 -0 -4 -1 -1 -1 -0 1 -1 2 -1 3 1 -2 1 1 -1 1 1 3 1 0
2 21 -25 0 -13 -12 -13 0 -15 -7 -1 -19 14 -17 -31 6 -15 6 1 -1 7 3 -5 1 4 4 -1 2 0 5 3 -1 1 3 1 1 1 1 2 2 3 2 1 1
15 -31 34 6 9 4 -9 -19 15 0 -6 12 -10 -18 8 -14 -15 -13 -6 -1 1 2 -5 6 1 6 2 4 2 3 6 2 1 2 3 3 0 0 -2 1 2 2 1 -1
-25 17 -1 9 19 -0 -6 35 12 8 3 1 -15 -7 -30 5 -9 -2 -5 -7 10 3 -3 3 2 -0 2 5 5 3 2 4 4 4 2 1 1 2 1 1 2 2 3 1
3 39 -14 42 -26 -9 13 8 2 7 -5 -1 -2 -40 -5 18 -9 -6 -3 -1 5 -1 -2 6 5 2 3 5 4 3 0 3 1 2 2 2 3 2 3 4 3 -0 -2 -4
-37 10 7 -19 -1 7 3 -14 0 0 -10 -9 3 -112 -1 -11 -5 -8 -3 -3 1 -8 -9 -7 -1 2 2 4 3 1 2 1 3 6 5 0 3 4 5 1 -1 -1 -2 -1
-9 -24 13 20 36 13 -16 17 11 3 20 -21 12 -99 -12 -4 -1 -5 -4 -1 5 5 -9 -2 -2 -1 -0 2 3 2 2 0 1 3 2 1 3 4 1 -0 -1 -1 -2 -1
46 -4 -8 -29 -74 25 -0 1 -4 9 16 -41 -35 -6 6 -2 -5 2 -2 -2 -2 3 1 -5 -4 2 1 1 1 1 2 0 -0 1 0 2 2 0 -1 -1 -2 1 -1 -3
33 -3 13 -12 -8 30 -2 -5 -6 11 -37 11 -66 -11 -1 6 1 -10 9 5 -5 -3 -8 1 2 3 1 0 3 5 -0 3 1 1 4 2 1 1 -1 1 1 0 -2 -4
19 -35 10 -12 10 6 7 9 11 -12 8 -5 31 -54 12 24 17 7 -2 5 -3 -1 -6 2 1 2 -1 -1 3 1 2 2 3 5 4 5 4 5 2 -0 2 -1 -5 -1
8 -6 17 -29 9 17 34 -85 17 4 12 -6 -13 9 -15 -7 8 -1 -6 -8 0 -0 -4 -3 -1 7 -0 0 4 3 4 5 6 5 3 4 4 -0 -1 1 1 -5 -3 -2
34 -2 12 -19 18 24 -129 15 -8 -8 -5 2 8 3 -3 -2 -4 3 2 -0 -0 -5 2 -0 -1 -1 -2 -0 1 -1 0 5 2 3 5 3 0 -1 1 3 -3 -7 -4 -2
11 52 2 10 -2 -25 -1 -15 0 -5 -32 -25 -16 -6 -0 -12 7 -1 21 -22 -10 7 13 5 10 6 -1 3 -0 2 1 5 7 6 3 -1 -0 3 5 -3 -7 -3 -1 -2
7 -5 34 17 3 -7 -21 -24 -1 15 -47 -2 3 -16 -13 21 10 -37 18 0 11 11 5 -0 -2 1 1 -1 1 4 1 5 3 2 -0 1 1 3 -6 -6 -5 -1 -3 -1
-3 4 -8 -5 3 -15 1 5 21 14 -31 5 -4 -8 0 -4 -5 34 -14 -4 10 5 6 2 -2 1 9 5 2 0 5 7 2 -2 1 3 2 -5 -5 -5 -2 -2 -0 -0
-4 3 5 15 10 -11 5 10 -6 -1 -19 2 -11 -0 -2 -3 0 4 5 1 3 7 2 -2 -0 3 -1 3 4 4 7 6 2 4 6 3 -1 -8 -4 -2 -2 -1 -2 -2
12 -40 -13 -11 -35 5 -7 14 4 8 2 -11 -8 12 5 -2 3 -0 2 0 2 4 2 2 4 -2 10 6 3 3 6 5 6 5 7 0 -8 -4 -2 1 1 -3 -5 3
11 5 -12 13 -6 -14 4 -3 19 7 -2 -5 8 -5 -0 -1 1 1 -8 -1 3 4 -1 -1 1 8 8 1 3 3 1 3 4 5 -2 -7 -3 -4 -2 -2 -4 -1 1 -0
32 16 -0 -17 -10 -2 -9 -16 0 10 10 -3 0 -1 -1 1 3 3 3 6 -5 -5 -1 -1 5 4 -2 -2 4 9 7 -1 1 0 -7 -4 -5 0 1 1 -1 -1 -1 -1
39 8 -26 -39 -4 15 -17 10 14 -14 -5 2 4 4 1 -2 1 2 -0 -2 7 -1 -4 -5 4 3 2 9 7 5 2 5 1 -4 -3 0 1 1 -1 -3 -2 -3 -2 -1
Height
3120 3125 3114 3124 3130 3134 3134 3132 3131 3135 3136 3134 3134 3136 3136 3138 3136 3134 3135 3134 3134 3134 3138 3137 3140 3142 3144 3146 3147 3149 3151 3152 3152 3153 3153 3155 3155 3155 3154 3154 3154 3154 3155 3155
3117 3104 3116 3122 3124 3128 3127 3126 3125 3129 3133 3128 3127 3126 3129 3129 3128 3127 3127 3126 3125 3126 3128 3128 3131 3133 3136 3138 3140 3143 3146 3147 3147 3147 3149 3150 3150 3150 3150 3150 3150 3151 3151 3151
3101 3097 3113 3114 3115 3118 3120 3118 3123 3124 3127 3122 3121 3114 3118 3119 3119 3118 3118 3119 3118 3118 3119 3120 3122 3125 3127 3130 3133 3136 3139 3141 3142 3142 3144 3145 3146 3146 3146 3146 3146 3147 3147 3147
3096 3097 3104 3106 3106 3112 3112 3115 3118 3119 3122 3112 3116 3097 3107 3110 3109 3108 3108 3109 3110 3110 3111 3113 3113 3116 3119 3122 3126 3129 3131 3134 3135 3137 3139 3140 3141 3141 3140 3141 3142 3143 3142 3141
3078 3085 3091 3094 3089 3107 3099 3114 3113 3114 3113 3112 3103 3103 3095 3100 3097 3099 3100 3101 3100 3100 3102 3106 3107 3110 3112 3114 3118 3120 3123 3126 3128 3131 3133 3133 3134 3135 3136 3136 3136 3136 3136 3136
3076 3082 3083 3078 3094 3098 3103 3107 3109 3109 3110 3099 3095 3101 3064 3084 3086 3089 3091 3092 3091 3092 3094 3098 3101 3103 3104 3106 3109 3113 3116 3118 3121 3123 3125 3126 3127 3129 3130 3129 3129 3129 3130 3130
3062 3070 3073 3078 3085 3091 3094 3098 3102 3099 3097 3075 3087 3087 3051 3073 3078 3080 3081 3084 3083 3083 3083 3087 3089 3092 3095 3098 3101 3104 3107 3110 3112 3115 3117 3119 3120 3121 3122 3123 3123 3123 3124 3124
3053 3060 3059 3058 3063 3076 3081 3085 3086 3083 3078 3068 3076 3058 3059 3065 3068 3070 3071 3074 3077 3073 3073 3076 3080 3084 3087 3090 3093 3096 3098 3101 3104 3106 3109 3111 3113 3115 3116 3117 3118 3119 3118 3117
3040 3040 3053 3053 3059 3068 3071 3073 3067 3082 3077 3076 3056 3049 3054 3057 3060 3063 3063 3064 3065 3064 3064 3067 3070 3074 3076 3080 3084 3087 3090 3093 3096 3099 3102 3104 3106 3108 3110 3111 3112 3111 3110 3109
3032 3038 3043 3046 3055 3058 3055 3062 3071 3074 3068 3062 3034 3039 3038 3049 3050 3053 3054 3056 3056 3054 3056 3059 3062 3064 3068 3072 3076 3079 3083 3086 3090 3093 3095 3097 3099 3101 3103 3104 3104 3104 3103 3101
3029 3036 3034 3037 3033 3032 3048 3051 3055 3058 3057 3047 3030 3020 3035 3041 3041 3045 3048 3049 3048 3047 3050 3053 3055 3057 3060 3063 3067 3070 3074 3078 3081 3085 3088 3091 3093 3094 3096 3097 3096 3096 3094 3092
3016 3023 3020 3025 3029 3035 3035 3032 3033 3037 3034 3038 3038 2997 3030 3034 3037 3039 3042 3042 3041 3042 3045 3047 3047 3048 3051 3055 3058 3062 3065 3070 3074 3077 3080 3083 3085 3087 3088 3089 3088 3086 3084 3082
3008 3012 3014 3017 3021 3023 3014 3017 3029 3031 3033 3025 3029 2980 3021 3025 3027 3032 3034 3035 3035 3036 3040 3041 3041 3042 3043 3046 3049 3052 3057 3061 3066 3069 3072 3075 3078 3079 3080 3080 3079 3077 3075 3073
3004 3002 2998 2997 2995 3001 3014 3013 3018 3024 3027 2999 3015 2972 3013 3018 3023 3026 3027 3029 3030 3031 3034 3036 3036 3036 3037 3039 3041 3045 3049 3052 3057 3061 3065 3068 3070 3071 3071 3071 3070 3068 3066 3064
2993 2991 2994 2991 2988 3001 3001 3005 3008 3010 2997 3006 2964 2997 3008 3016 3017 3020 3022 3022 3023 3025 3027 3027 3028 3029 3030 3032 3033 3036 3039 3045 3050 3054 3057 3059 3061 3062 3062 3061 3060 3059 3058 3057
2980 2981 2986 2979 2983 2990 2990 2992 2994 2992 2985 2994 2972 2979 3005 3010 3010 3008 3009 3012 3013 3016 3018 3019 3020 3022 3023 3025 3026 3028 3032 3037 3041 3046 3049 3051 3052 3052 3053 3052 3052 3051 3051 3049
2968 2971 2976 2965 2975 2979 2975 2965 2976 2979 2979 2976 2976 2954 2995 2996 2998 2998 3000 3001 3004 3008 3011 3013 3015 3016 3017 3018 3020 3022 3025 3029 3033 3037 3040 3042 3043 3044 3045 3044 3044 3045 3044 3041
2956 2960 2965 2958 2971 2958 2946 2963 2964 2967 2963 2965 2963 2973 2982 2984 2986 2986 2987 2990 2995 2999 3001 3003 3005 3007 3009 3010 3012 3014 3017 3021 3025 3030 3033 3034 3035 3035 3035 3036 3038 3037 3036 3034
2949 2946 2949 2950 2952 2947 2944 2948 2951 2954 2943 2952 2951 2962 2968 2971 2975 2972 2978 2978 2981 2986 2990 2991 2995 2998 3000 3001 3004 3006 3009 3013 3017 3021 3024 3026 3027 3028 3028 3031 3031 3030 3028 3027
2934 2938 2940 2936 2937 2933 2911 2942 2944 2949 2925 2942 2945 2948 2952 2959 2955 2957 2964 2965 2968 2973 2976 2979 2982 2986 2989 2991 2995 2998 3001 3006 3010 3013 3015 3017 3019 3019 3022 3024 3024 3023 3022 3020
2925 2922 2925 2928 2929 2917 2924 2929 2935 2937 2921 2927 2932 2939 2941 2941 2941 2949 2952 2955 2956 2960 2964 2967 2971 2975 2980 2984 2987 2990 2995 2999 3002 3004 3007 3009 3010 3014 3017 3017 3017 3016 3015 3015
2913 2916 2910 2919 2923 2914 2915 2921 2921 2916 2922 2926 2929 2932 2934 2935 2935 2937 2938 2942 2946 2948 2951 2957 2962 2967 2971 2975 2980 2984 2987 2990 2993 2996 3000 3001 3004 3008 3010 3010 3010 3009 3010 3009
2904 2900 2906 2909 2901 2905 2907 2911 2913 2916 2919 2922 2926 2927 2927 2928 2929 2930 2931 2933 2936 2939 2943 2948 2953 2957 2963 2967 2971 2973 2977 2982 2986 2989 2992 2995 2999 3002 3002 3003 3004 3004 3004 3004
2894 2893 2892 2894 2891 2898 2903 2906 2908 2911 2911 2913 2917 2919 2919 2921 2923 2924 2926 2928 2929 2932 2937 2941 2946 2949 2954 2958 2961 2965 2970 2974 2979 2982 2985 2991 2994 2995 2995 2996 2998 2999 2998 2997
2886 2883 2882 2882 2884 2888 2892 2896 2901 2902 2904 2906 2910 2911 2912 2913 2915 2916 2918 2921 2924 2927 2931 2935 2939 2943 2947 2949 2953 2958 2962 2966 2973 2976 2981 2985 2986 2987 2989 2991 2991 2991 2991 2989
2874 2871 2870 2869 2876 2882 2883 2888 2889 2892 2897 2899 2901 2903 2904 2906 2908 2910 2912 2915 2916 2918 2923 2928 2932 2935 2939 2944 2947 2952 2958 2963 2967 2972 2976 2978 2979 2981 2983 2984 2985 2984 2984 2982